ヒル彗星

465P/Hill (2023)

English version
Home page
Updated on December 1, 2023

---------------------------------------------------------------------

・ プロフィール

符号 465P/2023 L1
検出日 2023年6月1日
検出光度 18.8等
検出者 R. Kresken, F. Ocana, M. Micheli, L. Conversi (La Silla, Chile)

・ 写真集

・ 軌道要素

Epoch 2023 Feb. 25.0 TT = JDT 2460000.5                                         
T 2023 May  9.96541 TT                                  Rudenko                 
q   2.3299286            (2000.0)            P               Q                  
n   0.06656370     Peri.  141.26284     +0.96130617     +0.06072955             
a   6.0299136      Node   218.01551     -0.07483315     +0.99628785             
e   0.6136050      Incl.   25.86792     +0.26512347     +0.06101182             
P  14.8                                                                         
>From 624 observations 2008 June 12-2023 June 8, mean residual 0".5.             

・ 光度変化

        m1 = 4.3 + 5 logΔ + 30.0 log r(t - 50)

---------------------------------------------------------------------

軌道要素はM.P.E.C. 2023-L67に掲載されたものです。
光度グラフはComet for Windowsで作成したものです。

---------------------------------------------------------------------

Copyright(C) Seiichi Yoshida (comet@aerith.net). All rights reserved.